Location: Las Callecitas
(9.8750°N, 67.4611°W)
Time: 06:04:37
(UTC+00:00)

Cosmos 1400 Rocket - Visible Passes

Search period start: 13 July 2024 00:00
Search period end: 23 July 2024 00:00
Orbit: 500 x 542 km, 81.2° (Epoch: 12 July)

Date Brightness Start Highest point End Pass type
(mag) Time Alt. Az. Time Alt. Az. Time Alt. Az.
13 Jul 2.6 09:02:04 10° N 09:05:58 83° W 09:09:55 10° S visible
14 Jul 2.7 08:48:49 10° N 08:52:44 83° E 08:56:27 11° S visible
15 Jul 3.0 08:35:36 10° N 08:39:29 69° E 08:41:05 34° SSE visible
16 Jul 3.3 08:22:22 10° N 08:26:09 56° ENE 08:26:09 56° ENE visible
17 Jul 4.4 08:09:10 10° N 08:11:29 31° NNE 08:11:29 31° NNE visible
18 Jul 5.4 07:55:59 10° NNE 07:57:02 17° NNE 07:57:02 17° NNE visible
